Temperature
21 18 18 18 19 19 21 21 20 22 23 24 23 24 25 26 26 26 26 25 24 24 24 24 24 24 23 22 22 22 21 20 20 19 19 18 18 17 17 17 17 16 16 16
19 18 19 20 21 21 21 20 20 21 23 24 23 23 23 24 25 27 27 27 25 24 23 23 23 23 23 22 22 21 21 20 20 20 19 19 18 17 17 16 16 16 16 16
18 19 21 21 21 21 21 20 21 21 22 23 24 23 22 23 26 27 28 28 28 26 25 24 23 22 22 22 21 20 20 19 19 18 18 18 17 17 16 15 15 15 15 15
19 21 22 22 21 21 20 22 22 22 22 20 23 20 21 22 23 24 26 28 27 26 25 24 23 22 22 21 20 20 19 18 18 18 17 17 17 16 16 15 15 14 14 13
20 21 21 21 22 22 21 22 22 23 22 21 20 20 19 20 23 23 24 28 27 26 25 23 22 21 21 20 19 19 18 18 17 17 16 16 16 16 15 14 14 13 13 12
20 22 22 22 23 23 23 23 22 19 18 19 20 21 19 20 22 23 23 26 26 25 23 21 20 19 19 19 19 18 18 18 17 16 16 16 15 15 14 14 13 12 12 11
20 21 22 23 23 23 23 20 18 19 17 18 19 21 19 21 22 22 22 22 23 22 21 19 18 18 18 18 18 17 17 17 16 15 15 15 14 14 13 13 12 11 11 10
19 19 22 23 23 22 21 19 18 19 18 18 20 20 20 21 22 22 21 20 20 19 18 17 17 17 17 17 17 16 16 16 15 15 14 13 13 12 12 11 11 10 10 9
19 19 22 24 24 22 21 19 19 18 18 18 18 20 21 20 19 19 18 18 17 17 16 16 16 16 16 16 15 15 15 15 14 13 13 12 11 11 10 10 10 9 9 8
19 20 22 24 24 23 22 20 17 17 17 17 19 20 18 18 17 17 17 16 16 16 15 15 15 15 15 15 14 14 14 14 13 12 11 10 10 9 9 9 9 8 8 7
19 19 21 22 23 22 22 21 19 16 16 17 17 17 18 17 16 16 16 15 14 14 14 14 14 14 14 14 14 13 12 12 11 10 10 9 9 9 9 8 8 7 7 7
17 17 18 21 22 23 22 21 19 18 18 16 16 16 17 15 15 15 14 14 13 14 14 14 14 13 13 13 12 12 11 10 10 9 9 9 8 8 8 7 7 7 6 6
17 16 17 18 18 20 21 21 20 18 16 16 16 15 16 15 14 14 13 13 12 13 13 12 12 12 11 11 11 10 9 9 9 8 8 8 7 7 7 6 6 6 6 6
17 15 16 17 18 19 20 20 20 18 16 16 16 15 14 14 14 13 12 12 12 11 11 11 10 10 10 10 9 9 8 8 8 7 7 7 6 6 6 6 6 5 5 5
15 15 16 17 18 19 19 20 20 19 18 16 16 14 14 13 13 12 12 11 11 10 10 10 9 9 9 9 8 8 7 7 7 7 6 6 6 5 5 5 5 5 5 4
14 15 15 15 17 18 18 19 19 18 18 16 14 13 12 12 12 12 11 11 10 10 9 9 9 8 8 8 7 7 6 6 6 6 5 5 5 5 5 5 4 4 4 4
13 14 13 14 16 17 15 16 16 15 15 15 13 13 11 11 11 10 11 10 10 9 9 9 8 8 7 7 6 6 6 5 5 5 5 4 4 4 4 4 4 4 3 3
14 13 11 13 14 15 14 15 15 14 13 13 12 11 10 9 9 9 10 10 9 9 8 8 8 7 6 6 5 5 5 5 4 4 4 4 4 4 4 4 3 3 2 2
13 13 12 11 13 14 15 15 15 12 12 12 11 10 9 9 9 8 8 9 9 8 8 7 7 6 5 5 5 5 4 4 4 4 4 4 4 4 3 3 3 2 2 1
12 11 11 11 13 13 13 14 15 13 11 12 12 11 10 10 9 7 7 8 8 7 7 6 6 5 5 4 4 4 4 4 4 4 4 4 4 3 3 2 2 1 1 0
11 11 11 11 11 12 13 14 14 12 10 12 12 11 11 9 8 7 7 7 7 6 6 5 5 4 4 4 4 4 4 4 4 4 4 3 3 3 2 2 1 0 0 -0
10 10 10 10 10 11 12 12 11 10 12 12 12 11 10 8 7 7 6 6 6 5 5 4 4 4 4 4 4 4 4 4 4 4 3 3 3 2 2 1 0 0 -0 -0
10 10 9 10 9 10 11 11 12 12 12 11 11 10 10 7 6 6 5 5 5 4 4 4 4 4 4 4 4 4 4 4 4 3 3 3 2 2 1 1 0 0 -0 -0
10 11 10 9 9 10 10 11 11 11 11 11 11 10 9 7 6 5 5 4 4 4 4 4 4 4 4 4 4 4 4 4 3 3 3 2 2 1 1 1 0 0 -0 -1
10 11 10 9 9 9 10 10 10 10 10 10 10 9 8 7 5 5 5 4 4 4 4 4 4 4 4 4 4 4 4 4 3 3 3 2 2 2 1 1 0 0 -0 -1
9 9 8 8 9 8 8 9 9 9 9 9 8 7 7 6 5 5 5 5 4 4 5 5 5 4 4 4 4 4 3 3 3 3 3 2 2 2 2 1 1 0 -0 -1
Wind_Speed
6 5 7 10 8 8 6 6 10 13 12 8 12 15 17 14 11 10 12 16 19 22 20 18 18 18 17 16 17 17 18 17 14 11 10 9 7 6 6 6 11 14 15 15
2 8 12 9 7 7 8 10 12 14 13 6 8 10 10 10 10 11 13 13 15 15 14 17 17 17 19 19 17 15 15 14 12 10 8 6 7 7 6 6 9 13 14 14
12 9 8 8 9 9 11 11 14 14 15 8 4 8 9 9 5 5 8 11 13 17 21 21 19 18 17 16 14 12 10 9 7 9 10 11 8 6 5 6 6 8 14 14
10 12 8 9 12 11 12 15 15 15 11 8 1 4 10 8 9 8 8 7 9 13 16 20 20 18 17 13 11 10 10 9 9 10 11 13 8 6 5 5 5 6 11 12
9 9 12 14 18 15 15 15 11 9 6 3 5 1 9 7 8 11 12 11 9 11 16 18 17 15 13 12 12 11 11 9 9 9 9 10 9 8 8 7 8 7 6 8
11 8 9 14 17 15 15 6 3 4 5 2 6 2 8 7 10 12 11 8 6 9 13 13 13 14 14 13 12 11 12 10 9 10 10 11 14 13 11 9 7 5 5 5
10 12 9 7 9 10 7 5 3 4 5 6 5 3 10 12 11 10 7 3 2 9 15 16 17 15 14 12 11 10 12 12 11 12 11 11 12 12 11 9 7 6 5 4
9 10 8 8 11 10 7 11 10 7 6 6 5 5 6 8 7 4 6 9 12 13 14 15 14 14 13 12 11 11 13 13 12 13 12 11 11 9 7 7 7 6 5 5
10 9 9 9 9 10 8 8 11 9 6 2 6 7 7 9 11 11 12 14 14 15 15 15 15 14 13 13 12 12 14 14 14 13 13 12 11 11 10 10 9 7 6 5
10 7 6 6 3 3 10 10 7 7 7 5 5 3 4 7 6 8 11 14 15 15 16 16 15 14 14 14 13 13 14 14 13 12 11 12 11 11 10 10 10 8 6 5
4 7 6 3 2 3 1 4 6 6 7 8 4 3 4 4 2 9 12 14 15 15 15 14 14 13 13 13 13 13 12 12 12 11 11 10 9 9 9 9 8 7 5 5
4 5 3 4 4 1 3 3 5 4 5 6 6 1 7 5 7 13 15 15 14 14 13 13 13 13 13 13 12 12 10 10 10 10 10 10 9 9 9 8 7 7 7 7
5 5 3 5 7 8 6 5 3 5 4 3 5 3 5 7 11 13 15 14 13 12 12 11 10 10 11 12 12 11 9 9 9 9 10 10 10 9 9 8 8 8 8 8
4 5 4 3 2 5 5 5 4 5 4 4 5 7 2 7 10 11 12 12 11 11 10 9 9 9 9 10 11 11 9 9 9 10 10 10 9 8 8 8 8 8 8 8
5 4 3 2 4 5 5 6 4 1 6 7 8 8 4 5 9 10 10 11 12 11 10 9 9 9 9 10 10 9 9 8 9 10 9 8 7 8 8 8 7 7 7 7
5 4 5 7 10 7 7 9 6 5 3 10 13 8 5 6 8 9 9 10 11 11 11 10 10 10 9 9 9 9 9 8 8 9 8 7 6 6 6 6 6 7 7 6
3 4 4 4 8 6 9 10 8 9 7 6 6 7 9 10 10 6 6 8 10 10 11 11 10 9 9 8 9 9 8 8 8 7 5 4 5 5 5 6 7 6 5 5
3 3 3 2 6 3 3 9 15 16 14 12 13 11 12 12 10 10 7 8 9 10 10 10 10 9 8 8 8 8 8 7 6 5 4 4 5 6 7 7 6 5 4 4
3 5 4 3 1 2 3 5 3 7 8 7 11 11 11 11 9 9 8 7 8 9 9 9 9 10 9 8 7 7 6 4 4 4 4 4 6 7 7 6 5 3 3 3
6 5 5 4 3 2 1 6 3 11 4 3 7 8 7 5 3 2 4 8 9 10 9 9 9 9 9 7 6 7 5 4 4 4 5 6 7 7 6 5 3 3 3 3
5 5 3 3 2 2 3 6 3 4 4 1 5 5 5 3 4 8 8 8 9 10 9 9 9 8 6 5 5 5 4 4 4 5 7 7 7 6 5 4 3 3 4 4
1 2 1 2 2 5 5 4 4 4 3 5 5 6 8 10 11 10 10 10 10 10 9 8 7 6 4 4 5 4 3 3 4 6 7 7 6 5 5 5 4 4 5 4
1 3 4 4 4 2 4 6 4 5 5 4 5 8 13 13 11 11 10 10 9 8 7 6 7 5 3 3 4 4 2 2 4 6 6 6 6 5 4 4 4 3 4 3
4 1 3 4 3 3 5 5 4 4 3 3 7 11 12 13 13 12 11 9 8 6 5 5 5 4 2 2 3 2 2 3 5 6 5 5 5 3 3 3 3 2 1 2
4 2 2 3 2 3 4 4 4 4 5 6 8 9 12 15 14 12 11 9 7 5 4 4 4 4 3 3 4 3 3 5 7 6 5 4 3 3 2 2 2 3 3 3
2 2 4 5 4 4 1 2 2 4 4 7 10 11 11 13 14 12 10 7 6 5 4 5 5 5 5 5 5 5 6 7 8 6 4 3 2 2 3 2 2 4 5 6
Wind_Direction
197 152 213 224 206 198 228 269 279 279 286 290 271 264 269 268 248 224 200 195 200 203 199 189 186 185 179 176 178 174 169 170 163 153 146 141 130 113 94 86 94 97 98 95
220 229 222 218 238 242 250 265 274 286 283 262 267 274 271 267 241 214 198 198 196 191 187 186 185 183 182 181 182 176 174 172 167 155 144 130 120 106 91 88 81 88 93 91
204 228 215 217 241 248 253 241 252 259 282 308 298 317 317 309 298 237 202 198 193 186 182 183 182 183 180 180 176 169 161 152 142 130 122 116 102 91 82 81 76 75 85 87
222 235 234 227 235 229 251 241 237 248 255 271 266 280 295 302 319 305 281 257 216 194 182 179 177 176 174 168 150 137 135 131 128 128 137 139 136 128 115 111 99 82 87 94
230 216 213 231 239 230 237 248 241 237 220 292 342 326 285 306 294 282 278 270 246 204 184 177 172 164 149 134 125 120 120 119 123 125 132 126 120 118 121 114 107 97 90 97
235 238 209 222 239 234 230 221 24 54 71 330 270 244 286 271 255 268 277 274 236 186 164 147 134 125 119 116 115 117 117 115 118 124 129 132 132 133 131 125 120 112 99 89
269 269 256 244 267 271 198 134 38 346 0 260 272 246 255 267 267 258 267 300 118 135 135 132 128 123 118 112 109 109 112 110 112 114 114 118 123 125 126 128 127 125 114 102
231 268 251 230 220 230 210 154 163 191 218 269 318 232 260 297 333 32 78 88 92 100 108 112 109 106 103 99 97 101 103 101 101 103 104 105 105 105 106 108 111 119 117 113
201 242 258 245 231 186 173 179 174 156 183 228 277 280 324 6 30 55 77 87 92 95 97 96 91 88 88 86 84 92 97 95 93 96 99 98 97 97 98 96 96 101 107 109
191 235 280 289 319 265 182 160 111 134 171 228 270 306 323 334 17 67 88 95 94 93 91 86 83 83 84 87 87 84 90 94 94 94 97 101 97 99 101 101 101 102 104 105
178 200 279 351 46 315 357 128 127 142 162 171 215 287 341 317 14 98 98 99 99 97 95 93 92 91 92 93 94 93 92 95 95 96 95 95 97 100 99 101 104 107 100 90
16 142 225 256 285 280 98 101 125 167 233 171 152 189 347 35 73 104 106 104 101 101 101 102 104 105 105 104 102 100 99 99 99 99 96 93 93 93 90 87 82 79 71 59
40 74 58 350 2 9 41 40 82 124 111 119 130 153 12 78 90 103 110 110 106 103 102 100 101 104 110 110 107 102 100 100 98 97 95 91 88 87 84 81 78 76 73 66
81 73 109 128 351 325 343 358 59 101 118 128 145 145 94 106 111 110 111 110 107 103 102 101 98 96 96 97 99 100 96 95 95 93 91 86 82 82 81 79 77 71 70 69
71 69 50 38 2 1 350 348 6 89 169 161 153 132 133 128 126 123 120 116 113 111 111 111 109 106 100 95 92 94 92 88 90 88 83 78 75 74 75 74 71 70 72 76
45 62 39 12 4 1 9 9 48 47 79 124 117 102 88 91 98 108 122 126 129 130 128 123 118 113 107 103 100 94 87 79 78 78 76 73 72 71 73 76 77 75 67 59
30 71 66 355 343 22 16 3 73 64 36 116 119 122 114 86 71 74 108 126 130 133 131 128 124 118 111 103 99 90 81 74 73 71 72 79 81 79 79 87 80 74 66 58
136 100 109 52 39 52 90 65 75 69 50 65 94 104 104 100 79 55 62 104 117 123 125 124 121 114 104 97 90 85 78 74 76 77 85 96 102 95 88 84 78 68 60 53
151 137 113 104 101 300 79 23 63 99 52 59 106 116 125 123 85 50 41 77 102 112 118 119 118 114 106 98 93 91 87 85 91 97 102 100 106 102 93 86 76 64 59 37
34 86 114 117 133 220 314 328 89 107 78 25 114 136 158 167 118 131 97 100 105 109 111 113 110 107 102 95 96 102 103 106 106 102 93 95 101 102 100 94 77 51 52 40
12 29 70 117 167 260 304 318 49 129 181 168 115 127 133 125 136 133 123 113 114 113 112 111 109 107 110 109 104 104 103 106 111 103 96 97 101 104 101 85 67 57 52 45
117 71 50 118 178 242 322 40 96 161 153 116 119 123 120 120 120 126 127 126 124 119 115 114 112 113 116 116 112 107 118 133 116 105 101 97 93 93 96 87 63 55 56 43
112 192 190 176 200 231 53 99 125 136 121 130 140 143 137 137 138 136 133 130 126 123 121 118 120 118 116 127 132 135 169 141 112 107 107 103 97 92 101 101 85 57 47 39
324 354 84 71 66 75 67 69 56 68 98 133 144 146 145 143 143 139 136 132 129 125 124 122 122 122 122 126 125 150 157 127 115 119 120 119 115 107 100 104 115 105 70 33
282 356 66 93 130 74 37 48 61 63 81 106 119 133 141 139 141 140 139 139 138 138 136 134 130 125 119 107 93 88 102 113 114 120 127 136 145 156 167 175 186 179 203 198
281 177 163 196 201 162 220 340 66 87 104 124 122 117 126 133 135 135 137 137 140 143 139 129 122 115 108 100 87 78 89 107 117 126 141 158 174 197 201 210 269 258 238 239
Height
1484 1493 1498 1495 1495 1497 1497 1500 1504 1495 1484 1486 1486 1482 1472 1466 1467 1467 1468 1470 1472 1473 1474 1479 1483 1487 1491 1495 1498 1498 1501 1505 1509 1513 1517 1521 1525 1528 1532 1534 1536 1538 1540 1541
1487 1492 1486 1485 1487 1490 1494 1501 1501 1492 1480 1482 1483 1480 1470 1464 1462 1461 1463 1464 1466 1469 1473 1476 1480 1484 1486 1489 1493 1496 1499 1502 1505 1507 1511 1516 1519 1523 1527 1530 1533 1535 1536 1537
1487 1483 1479 1483 1487 1491 1493 1498 1496 1494 1483 1480 1481 1483 1475 1464 1459 1458 1458 1459 1459 1461 1464 1468 1473 1477 1481 1485 1489 1493 1497 1501 1504 1505 1508 1512 1516 1520 1523 1526 1529 1531 1532 1534
1480 1476 1478 1482 1484 1487 1494 1482 1483 1485 1491 1496 1485 1502 1483 1470 1463 1459 1456 1455 1455 1456 1458 1461 1465 1470 1475 1481 1487 1492 1496 1500 1502 1504 1505 1508 1511 1516 1519 1523 1526 1528 1530 1532
1476 1471 1475 1479 1476 1477 1480 1472 1478 1478 1484 1491 1488 1498 1492 1474 1468 1460 1453 1451 1451 1453 1455 1457 1461 1466 1473 1480 1486 1491 1495 1500 1500 1501 1504 1507 1511 1514 1518 1521 1524 1526 1528 1530
1468 1464 1466 1467 1464 1466 1466 1471 1475 1483 1492 1504 1492 1495 1497 1476 1465 1456 1449 1446 1446 1448 1452 1457 1461 1467 1473 1480 1485 1490 1494 1497 1497 1497 1503 1506 1509 1512 1515 1519 1521 1524 1525 1528
1471 1464 1460 1460 1464 1461 1464 1482 1503 1504 1514 1509 1490 1491 1490 1463 1454 1450 1448 1446 1445 1448 1452 1457 1462 1468 1475 1481 1487 1491 1493 1495 1497 1500 1503 1506 1509 1511 1514 1516 1519 1521 1524 1526
1480 1474 1457 1454 1458 1463 1464 1474 1501 1513 1515 1507 1488 1491 1479 1460 1453 1449 1449 1450 1451 1455 1459 1464 1469 1474 1479 1485 1489 1491 1493 1495 1498 1501 1503 1505 1507 1510 1512 1515 1518 1521 1523 1525
1472 1470 1449 1446 1445 1450 1461 1469 1469 1490 1497 1504 1500 1484 1471 1462 1458 1456 1457 1457 1460 1463 1466 1471 1476 1480 1485 1489 1492 1494 1495 1497 1498 1501 1503 1505 1507 1510 1512 1515 1518 1520 1522 1524
1456 1464 1451 1443 1440 1442 1446 1453 1476 1490 1505 1512 1499 1490 1490 1476 1470 1464 1464 1465 1468 1470 1474 1477 1481 1485 1488 1492 1495 1497 1498 1499 1500 1502 1504 1506 1508 1511 1514 1516 1518 1520 1521 1523
1451 1462 1456 1449 1450 1452 1449 1453 1464 1480 1487 1502 1508 1503 1482 1479 1473 1469 1470 1472 1474 1477 1479 1482 1485 1489 1491 1494 1496 1499 1501 1501 1503 1504 1506 1508 1510 1513 1515 1517 1518 1520 1521 1522
1454 1461 1465 1454 1446 1441 1445 1451 1459 1478 1484 1487 1498 1505 1482 1479 1475 1474 1475 1478 1480 1482 1484 1486 1488 1490 1492 1494 1496 1499 1502 1504 1505 1506 1508 1510 1512 1513 1515 1517 1518 1520 1520 1521
1456 1465 1473 1469 1465 1454 1453 1454 1457 1466 1479 1487 1497 1502 1484 1481 1480 1480 1481 1483 1486 1487 1489 1490 1491 1493 1493 1493 1496 1500 1503 1506 1507 1509 1510 1511 1513 1514 1516 1517 1518 1519 1520 1520
1455 1469 1477 1481 1477 1466 1462 1459 1459 1467 1482 1485 1485 1491 1488 1485 1483 1484 1486 1487 1489 1492 1494 1495 1495 1496 1497 1497 1498 1501 1504 1507 1508 1510 1511 1512 1514 1515 1517 1518 1519 1519 1519 1519
1460 1472 1470 1469 1465 1462 1462 1460 1459 1463 1467 1477 1481 1486 1487 1485 1485 1486 1489 1490 1492 1495 1497 1498 1498 1498 1499 1500 1501 1504 1506 1508 1510 1511 1512 1514 1515 1516 1517 1518 1519 1519 1519 1518
1467 1472 1472 1473 1465 1463 1463 1461 1460 1462 1464 1471 1479 1487 1487 1487 1487 1488 1490 1492 1493 1495 1497 1499 1500 1500 1501 1502 1504 1506 1508 1510 1511 1512 1514 1515 1517 1518 1518 1519 1519 1519 1518 1517
1473 1476 1481 1483 1472 1467 1478 1472 1467 1471 1472 1472 1481 1487 1488 1490 1490 1491 1492 1493 1495 1496 1497 1498 1500 1501 1503 1505 1506 1508 1510 1512 1513 1515 1516 1517 1518 1519 1519 1519 1519 1518 1517 1516
1474 1478 1485 1486 1481 1490 1492 1477 1475 1478 1481 1479 1483 1488 1491 1492 1494 1494 1494 1495 1496 1497 1498 1500 1501 1503 1505 1507 1508 1510 1512 1514 1515 1517 1518 1519 1520 1520 1520 1520 1519 1517 1516 1514
1470 1475 1484 1491 1490 1487 1482 1479 1478 1484 1491 1488 1489 1492 1494 1494 1494 1497 1498 1497 1498 1499 1500 1501 1503 1504 1506 1509 1511 1512 1514 1516 1518 1519 1520 1521 1521 1521 1520 1519 1518 1516 1514 1512
1472 1474 1484 1489 1492 1495 1489 1481 1479 1484 1496 1491 1490 1492 1494 1494 1497 1501 1500 1499 1499 1500 1501 1503 1505 1506 1509 1511 1513 1515 1517 1519 1520 1521 1521 1522 1522 1521 1520 1519 1517 1515 1514 1512
1484 1485 1487 1491 1493 1489 1485 1480 1479 1491 1497 1492 1491 1492 1492 1493 1495 1499 1500 1501 1501 1502 1503 1505 1508 1510 1512 1514 1516 1518 1519 1521 1522 1522 1522 1522 1522 1521 1520 1518 1517 1515 1514 1512
1488 1491 1491 1492 1495 1496 1484 1482 1487 1491 1489 1490 1491 1491 1491 1492 1495 1498 1500 1501 1502 1504 1506 1508 1511 1513 1515 1517 1518 1520 1521 1522 1523 1523 1523 1522 1522 1521 1520 1518 1517 1515 1513 1512
1489 1489 1489 1490 1494 1488 1485 1485 1487 1487 1488 1489 1490 1490 1491 1492 1496 1498 1501 1503 1505 1507 1510 1512 1514 1516 1518 1519 1520 1521 1522 1523 1523 1523 1523 1523 1523 1522 1520 1519 1517 1515 1513 1511
1487 1484 1486 1489 1490 1488 1487 1487 1487 1487 1487 1487 1488 1489 1490 1491 1495 1498 1502 1505 1508 1511 1514 1516 1518 1519 1520 1521 1522 1523 1523 1524 1524 1524 1524 1524 1523 1521 1520 1519 1517 1515 1513 1511
1488 1486 1487 1490 1490 1489 1488 1487 1487 1487 1486 1486 1487 1488 1490 1492 1496 1499 1504 1508 1512 1515 1517 1519 1521 1522 1523 1524 1524 1524 1524 1525 1525 1525 1525 1524 1523 1521 1520 1519 1517 1515 1513 1511
1487 1487 1489 1490 1488 1488 1489 1488 1487 1486 1486 1486 1487 1489 1492 1494 1498 1502 1507 1511 1515 1518 1520 1522 1523 1524 1525 1525 1526 1526 1525 1525 1525 1525 1525 1524 1523 1522 1520 1519 1517 1515 1513 1510